Regional Weather Roundup
Issued by NWS

Home | Current Version | Previous Version | Graphics & Text | Print | Product List | Glossary On
Versions: 1 2 3 4 5 6 7 8 9 10 11 12 13 14 15 16 17 18 19 20 21 22 23 24 25 26 27 28 29 30 31 32 33 34 35 36 37 38 39 40 41 42 43 44 45 46 47 48 49 50
000
ASUS43 KIND 300109
RWRIN

WEATHER ROUNDUP FOR INDIANA
NATIONAL WEATHER SERVICE INDIANAPOLIS IN
900 PM EDT MON AUG 29 2016

NOTE: "FAIR" INDICATES FEW OR NO CLOUDS BELOW 12,000 FEET WITH NO
SIGNIFICANT WEATHER AND/OR OBSTRUCTIONS TO VISIBILITY.

* - STATION DOES NOT REPORT WEATHER SUCH AS PRECIPITATION OR FOG.

+ - STATION NOT QUALITY CONTROLLED BY THE NATIONAL WEATHER SERVICE.
    USE DATA WITH CAUTION...ESPECIALLY DEWPOINT AND RELATIVE
    HUMIDITY OBSERVATIONS.

INZ001>003-010>013-019-020-300200-
NORTHWEST INDIANA

CITY           SKY/WX    TMP DP  RH WIND       PRES   REMARKS
GARY /AIRPORT/ MOCLDY    77  75  94 NE5       30.18S
KNOX *+        PTCLDY    73  59  60 CALM      30.18R
LA PORTE +     MOCLDY   N/A N/A N/A CALM      30.19S
MICHIGAN CITY+ CLOUDY    73  73 100 CALM      30.19S
MONTICELLO +   CLEAR     78  70  76 CALM      30.16S
RENSSELAER +   PTCLDY    77  73  88 CALM      30.16F
VALPARAISO     MOCLDY    77  73  87 NE3       30.18S

$$

LMZ046-743>745-300200-
SOUTHERN LAKE MICHIGAN

STATION/POSITION TIME  TEMP    WIND        PRES    WAVE
                       AIR SEA DIR/SP/G            HT
                 (UTC) (F)     (DEG/KT/KT) (MB)    (FT)
BURNS HARBOR     0000   73      80/  8/  9 1022.0F
MICHIGAN CITY    0000   75      40/ 10/ 10   N/A
5NW MICH CITY    0100   76 76   70/  6/  8   N/A     1

$$

INZ004-005-014>016-021>024-300200-
NORTH CENTRAL INDIANA

CITY           SKY/WX    TMP DP  RH WIND       PRES   REMARKS
ELKHART        CLEAR    N/A N/A N/A CALM      30.18F
GOSHEN         PTCLDY    76  70  82 CALM      30.19S
LOGANSPORT +   CLEAR     73  72  94 CALM      30.18S
ROCHESTER +    CLEAR     77  73  88 CALM      30.19R
SOUTH BEND     PTCLDY    79  72  79 CALM      30.19S
WARSAW +       PTCLDY    73  72  94 CALM      30.20R

$$

INZ006>009-017-018-025>027-300200-
NORTHEAST INDIANA

CITY           SKY/WX    TMP DP  RH WIND       PRES   REMARKS
ANGOLA *+      PTCLDY    73  70  88 CALM      30.21S
AUBURN +       CLEAR     73  70  88 CALM      30.21R
FORT WAYNE     PTCLDY    76  69  79 E3        30.20R
HUNTINGTON +   CLEAR     75  72  89 CALM      30.19S

$$

INZ028-029-035-036-043>045-051>053-300200-
WEST CENTRAL INDIANA

CITY           SKY/WX    TMP DP  RH WIND       PRES   REMARKS
CRAWFORDSVL +  CLEAR     74  74 100 NE3       30.16S
GREENCASTLE +  CLEAR     75  73  94 CALM      30.17R
LAFAYETTE      CLEAR     79  73  82 CALM      30.15S
TERRE HAUTE    CLEAR     78  74  87 CALM      30.14S

$$

INZ030>032-037>040-046>048-054>057-064-065-300200-
CENTRAL INDIANA

CITY           SKY/WX    TMP DP  RH WIND       PRES   REMARKS
COLUMBUS       CLEAR     77  75  94 NE5       30.16R
INDIANAPOLIS   PTCLDY    83  70  64 E8        30.15S
-EAGLE CREEK   CLEAR     83  69  62 NE5       30.15S
KOKOMO *+      CLEAR     77  72  83 E6        30.18S
MARION +       CLEAR     75  71  87 CALM      30.19S
MT COMFORT *+  CLEAR     75  72  88 E3        30.18S
SHELBYVILLE    CLEAR     78  71  79 NE6       30.16S
ZIONSVILLE +   CLEAR     75  72  89 NE6       30.18S

$$

INZ033-034-041-042-049-050-058-059-300200-
EAST CENTRAL INDIANA

CITY           SKY/WX    TMP DP  RH WIND       PRES   REMARKS
MUNCIE         CLEAR     76  72  87 NE3       30.19R

$$

INZ060-061-067>069-081>083-085>088-300200-
SOUTHWEST INDIANA

CITY           SKY/WX    TMP DP  RH WIND       PRES   REMARKS
EVANSVILLE     CLEAR     80  73  79 NE7       30.12R
HUNTINGBURG *+ CLEAR     79  70  73 N3        30.13R
WASHINGTON +   CLEAR     80  75  84 MISG      30.13R

$$

INZ062-063-066-070>080-084-089>092-300200-
SOUTH CENTRAL AND SOUTHEAST INDIANA

CITY           SKY/WX    TMP DP  RH WIND       PRES   REMARKS
BLOOMINGTON    CLEAR     75  71  87 CALM      30.16R
MADISON *+     CLEAR     73  72  94 CALM      30.17S

$$





USA.gov is the U.S. government's official web portal to all federal, state and local government web resources and services.